When you browse on this site, cookies collect data to enhance your experience and personalize the content and advertising you see.
Visit our Privacy Policy to learn more. By continuing to use the site, you agree to this use of cookies and data.
  • In Austria
  • List of Countries
  • For 7 days
  • Water Temperature
  • Satellite Maps
  • Weather Map
  • News
  • Weather Widgets
  • user-avatar
    Login

    Hourly Weather Portalegre

    Today, 19 May, Sunday

    Time Temperature Precipitation Wind Pressure Humidity
    00:00 +8°C° 0 mm 2 mps 721 mmHg 73%
    01:00 +8°C° 0 mm 2 mps 721 mmHg 75%
    02:00 +8°C° 0 mm 2 mps 721 mmHg 77%
    03:00 +7°C° 0 mm 2 mps 721 mmHg 80%
    04:00 +7°C° 0 mm 2 mps 721 mmHg 81%
    05:00 +8°C° 0 mm 1 mps 721 mmHg 82%
    06:00 +8°C° 0 mm 1 mps 721 mmHg 79%
    07:00 +11°C° 0 mm 1 mps 721 mmHg 67%
    08:00 +13°C° 0 mm 1 mps 721 mmHg 55%
    09:00 +16°C° 0 mm 1 mps 721 mmHg 43%
    10:00 +17°C° 0 mm 2 mps 721 mmHg 39%
    11:00 +19°C° 0 mm 2 mps 721 mmHg 36%
    12:00 +20°C° 0 mm 3 mps 722 mmHg 37%
    13:00 +20°C° 0 mm 3 mps 721 mmHg 35%
    14:00 +21°C° 0 mm 4 mps 721 mmHg 34%
    15:00 +22°C° 0 mm 4 mps 721 mmHg 33%
    16:00 +21°C° 0 mm 4 mps 721 mmHg 35%
    17:00 +20°C° 0 mm 4 mps 721 mmHg 37%
    18:00 +19°C° 0 mm 4 mps 720 mmHg 39%
    19:00 +17°C° 0 mm 3 mps 720 mmHg 43%
    20:00 +14°C° 0 mm 3 mps 720 mmHg 47%
    21:00 +13°C° 0 mm 2 mps 721 mmHg 50%
    22:00 +12°C° 0 mm 2 mps 720 mmHg 55%
    23:00 +9°C° 0 mm 2 mps 720 mmHg 60%

    Tomorrow, 20 May, Monday

    Time Temperature Precipitation Wind Pressure Humidity
    00:00 +9°C° 0 mm 1 mps 720 mmHg 65%
    01:00 +8°C° 0 mm 1 mps 720 mmHg 68%
    02:00 +8°C° 0 mm 1 mps 720 mmHg 70%
    03:00 +7°C° 0 mm 1 mps 720 mmHg 72%
    04:00 +7°C° 0 mm 1 mps 720 mmHg 72%
    05:00 +7°C° 0 mm 1 mps 720 mmHg 71%
    06:00 +8°C° 0 mm 1 mps 720 mmHg 71%
    07:00 +11°C° 0 mm 1 mps 721 mmHg 61%
    08:00 +14°C° 0 mm 1 mps 721 mmHg 52%
    09:00 +18°C° 0 mm 1 mps 721 mmHg 42%
    10:00 +20°C° 0 mm 1 mps 721 mmHg 37%
    11:00 +20°C° 0 mm 2 mps 722 mmHg 32%
    12:00 +23°C° 0 mm 2 mps 722 mmHg 27%
    13:00 +24°C° 0 mm 2 mps 721 mmHg 27%
    14:00 +24°C° 0 mm 3 mps 721 mmHg 28%
    15:00 +25°C° 0 mm 3 mps 721 mmHg 28%
    16:00 +23°C° 0 mm 4 mps 721 mmHg 32%
    17:00 +22°C° 0 mm 4 mps 721 mmHg 36%
    18:00 +21°C° 0 mm 5 mps 721 mmHg 40%
    19:00 +18°C° 0 mm 4 mps 721 mmHg 47%
    20:00 +16°C° 0 mm 3 mps 721 mmHg 53%
    21:00 +13°C° 0 mm 3 mps 721 mmHg 60%
    22:00 +12°C° 0 mm 3 mps 721 mmHg 66%
    23:00 +12°C° 0 mm 2 mps 721 mmHg 72%

    Day after tomorrow, 21 May, Tuesday

    Time Temperature Precipitation Wind Pressure Humidity
    00:00 +10°C° 0 mm 2 mps 721 mmHg 78%
    01:00 +9°C° 0 mm 2 mps 721 mmHg 80%
    02:00 +10°C° 0 mm 1 mps 721 mmHg 82%
    03:00 +9°C° 0 mm 1 mps 721 mmHg 85%
    04:00 +10°C° 0 mm 1 mps 721 mmHg 84%
    05:00 +10°C° 0 mm 1 mps 721 mmHg 83%
    06:00 +10°C° 0 mm 1 mps 721 mmHg 82%
    07:00 +13°C° 0 mm 1 mps 722 mmHg 71%
    08:00 +16°C° 0 mm 1 mps 722 mmHg 60%
    09:00 +20°C° 0 mm 1 mps 723 mmHg 49%
    10:00 +23°C° 0 mm 1 mps 723 mmHg 44%
    11:00 +25°C° 0 mm 1 mps 723 mmHg 39%
    12:00 +27°C° 0 mm 1 mps 723 mmHg 34%
    13:00 +27°C° 0 mm 1 mps 723 mmHg 33%
    14:00 +27°C° 0 mm 1 mps 723 mmHg 32%
    15:00 +27°C° 0 mm 1 mps 722 mmHg 31%
    16:00 +26°C° 0 mm 2 mps 722 mmHg 34%
    17:00 +26°C° 0 mm 2 mps 722 mmHg 37%
    18:00 +25°C° 0 mm 2 mps 722 mmHg 40%
    19:00 +23°C° 0 mm 2 mps 722 mmHg 49%
    20:00 +19°C° 0 mm 2 mps 722 mmHg 58%
    21:00 +17°C° 0 mm 2 mps 723 mmHg 67%
    22:00 +16°C° 0 mm 2 mps 723 mmHg 72%
    23:00 +15°C° 0 mm 2 mps 723 mmHg 77%

    22 May, Wednesday

    Time Temperature Precipitation Wind Pressure Humidity
    00:00 +14°C° 0 mm 1 mps 723 mmHg 82%
    01:00 +14°C° 0 mm 1 mps 722 mmHg 83%
    02:00 +14°C° 0 mm 1 mps 722 mmHg 84%
    03:00 +14°C° 0 mm 1 mps 722 mmHg 84%
    04:00 +14°C° 0 mm 1 mps 722 mmHg 83%
    05:00 +14°C° 0 mm 1 mps 722 mmHg 82%
    06:00 +14°C° 0 mm 1 mps 722 mmHg 81%
    07:00 +18°C° 0 mm 1 mps 723 mmHg 69%
    08:00 +21°C° 0 mm 1 mps 723 mmHg 57%
    09:00 +24°C° 0 mm 1 mps 724 mmHg 45%
    10:00 +26°C° 0 mm 1 mps 724 mmHg 40%
    11:00 +29°C° 0 mm 1 mps 724 mmHg 35%
    12:00 +29°C° 0 mm 0 mps 725 mmHg 30%
    13:00 +31°C° 0 mm 1 mps 724 mmHg 29%
    14:00 +30°C° 0 mm 1 mps 724 mmHg 28%
    15:00 +30°C° 0 mm 1 mps 723 mmHg 27%
    16:00 +29°C° 0 mm 2 mps 723 mmHg 30%
    17:00 +28°C° 0 mm 2 mps 723 mmHg 33%
    18:00 +28°C° 0 mm 2 mps 723 mmHg 36%
    19:00 +25°C° 0 mm 2 mps 723 mmHg 43%
    20:00 +21°C° 0 mm 2 mps 723 mmHg 51%
    21:00 +19°C° 0 mm 3 mps 723 mmHg 58%
    22:00 +18°C° 0 mm 2 mps 723 mmHg 60%
    23:00 +17°C° 0 mm 2 mps 723 mmHg 63%

    23 May, Thursday

    Time Temperature Precipitation Wind Pressure Humidity
    00:00 +16°C° 0 mm 1 mps 723 mmHg 65%
    01:00 +16°C° 0 mm 1 mps 723 mmHg 66%
    02:00 +15°C° 0 mm 1 mps 723 mmHg 67%
    03:00 +15°C° 0 mm 1 mps 723 mmHg 68%
    04:00 +15°C° 0 mm 1 mps 723 mmHg 69%
    05:00 +15°C° 0 mm 1 mps 723 mmHg 70%
    06:00 +15°C° 0 mm 1 mps 723 mmHg 71%
    07:00 +19°C° 0 mm 1 mps 724 mmHg 63%
    08:00 +22°C° 0 mm 1 mps 724 mmHg 55%
    09:00 +25°C° 0 mm 1 mps 725 mmHg 46%
    10:00 +27°C° 0 mm 1 mps 725 mmHg 41%
    11:00 +28°C° 0 mm 1 mps 725 mmHg 37%
    12:00 +30°C° 0 mm 1 mps 725 mmHg 32%
    13:00 +30°C° 0 mm 2 mps 724 mmHg 29%
    14:00 +30°C° 0 mm 2 mps 724 mmHg 27%
    15:00 +30°C° 0 mm 3 mps 724 mmHg 25%
    16:00 +29°C° 0 mm 3 mps 724 mmHg 28%
    17:00 +28°C° 0 mm 3 mps 724 mmHg 31%
    18:00 +27°C° 0 mm 4 mps 724 mmHg 34%
    19:00 +25°C° 0 mm 3 mps 724 mmHg 41%
    20:00 +21°C° 0 mm 3 mps 724 mmHg 47%
    21:00 +18°C° 0 mm 2 mps 724 mmHg 54%
    22:00 +17°C° 0 mm 2 mps 724 mmHg 57%
    23:00 +17°C° 0 mm 2 mps 724 mmHg 60%

    24 May, Friday

    Time Temperature Precipitation Wind Pressure Humidity
    00:00 +16°C° 0 mm 1 mps 724 mmHg 63%
    01:00 +16°C° 0 mm 1 mps 724 mmHg 65%
    02:00 +15°C° 0 mm 1 mps 723 mmHg 66%
    03:00 +15°C° 0 mm 1 mps 723 mmHg 67%
    04:00 +15°C° 0 mm 1 mps 723 mmHg 66%
    05:00 +16°C° 0 mm 1 mps 724 mmHg 66%
    06:00 +16°C° 0 mm 1 mps 724 mmHg 65%
    07:00 +19°C° 0 mm 2 mps 724 mmHg 57%
    08:00 +23°C° 0 mm 2 mps 724 mmHg 50%
    09:00 +25°C° 0 mm 2 mps 725 mmHg 42%
    10:00 +28°C° 0 mm 2 mps 725 mmHg 38%
    11:00 +30°C° 0 mm 2 mps 725 mmHg 33%
    12:00 +32°C° 0 mm 1 mps 725 mmHg 28%
    13:00 +32°C° 0 mm 1 mps 724 mmHg 26%
    14:00 +34°C° 0 mm 2 mps 724 mmHg 25%
    15:00 +34°C° 0 mm 2 mps 724 mmHg 23%
    16:00 +32°C° 0 mm 2 mps 724 mmHg 25%
    17:00 +32°C° 0 mm 2 mps 723 mmHg 27%
    18:00 +31°C° 0 mm 2 mps 723 mmHg 29%
    19:00 +29°C° 0 mm 2 mps 723 mmHg 33%
    20:00 +26°C° 0 mm 2 mps 724 mmHg 36%
    21:00 +24°C° 0 mm 2 mps 724 mmHg 40%
    22:00 +24°C° 0 mm 3 mps 724 mmHg 41%
    23:00 +22°C° 0 mm 3 mps 724 mmHg 43%
    Show more